Weather History for Point Lay, AK

Change the Weather History Date:

Monday, April 1, 2013

  Actual Average Record
Temperature  
Mean Temperature -4 °F -  
Max Temperature 1 °F 5 °F 33 °F (2008)
Min Temperature -9 °F -6 °F -35 °F (2012)
Degree Days  
Heating Degree Days 69    
Moisture  
Dew Point -9 °F    
Average Humidity 78    
Maximum Humidity 84    
Minimum Humidity 71    
Precipitation  
Precipitation 0.00 in - - ()
Sea Level Pressure  
Sea Level Pressure 30.35 in    
Wind  
Wind Speed 18 mph (ENE)    
Max Wind Speed 28 mph    
Max Gust Speed 34 mph    
Visibility 5 miles    
Events      
Averages and records for this station are not official NWS values.
T = Trace of Precipitation, MM = Missing Value Source: NWS Daily Summary

Daily Weather History Graph

Daily Weather History Graph

Search for Another Location

Airport:

Trip Planner

Search our weather history database for the weather conditions in past years. The results will help you decide how hot, cold, wet, or windy it might be!

Date:

Astronomy

Apr. 01, 2013 Rise Set
Actual Time 7:53 AM AKDT 10:00 PM AKDT
Civil Twilight 6:48 AM AKDT 11:06 PM AKDT
Nautical Twilight 5:12 AM AKDT 12:44 AM AKDT
Astronomical Twilight Sun does not rise Sun does not rise
Moon No Moon Rise No Moon Set
Length of Visible Light 16h 18m
Length of Day
14h 06m
Waning Gibbous, 65% of the Moon is Illuminated
Apr 1
Waning Gibbous
Apr 2
Last Quarter
Apr 10
New
Apr 18
First Quarter
Apr 25
Full

Hourly Weather History & Observations

Time (AKDT) Temp. Windchill Dew Point Humidity Pressure Visibility Wind Dir Wind Speed Gust Speed Precip Events Conditions
12:56 AM -9.9 °F -29.6 °F -15.9 °F 75% 30.36 in 10.0 mi NE 11.5 mph - N/A   Clear
1:56 AM -9.9 °F -30.5 °F -15.0 °F 78% 30.36 in 10.0 mi NE 12.7 mph - N/A   Clear
2:56 AM -9.9 °F -32.1 °F -15.0 °F 78% 30.35 in 10.0 mi NE 15.0 mph - N/A   Clear
3:32 AM -9.4 °F -32.1 °F -14.8 °F 77% 30.34 in 10.0 mi NE 16.1 mph - N/A   Mostly Cloudy
3:56 AM -9.9 °F -31.3 °F -15.0 °F 78% 30.37 in 10.0 mi NE 13.8 mph - N/A   Overcast
4:56 AM -8.9 °F -32.1 °F -13.9 °F 79% 30.36 in 10.0 mi NE 17.3 mph - N/A   Overcast
5:24 AM -7.6 °F -29.8 °F -14.8 °F 71% 30.35 in 10.0 mi NE 16.1 mph - N/A   Overcast
5:56 AM -6.9 °F -28.9 °F -13.0 °F 75% 30.36 in 10.0 mi NE 16.1 mph - N/A   Overcast
6:32 AM -5.8 °F -26.8 °F -11.2 °F 77% 30.34 in 10.0 mi NE 15.0 mph - N/A   Overcast
6:56 AM -4.9 °F -27.0 °F -9.9 °F 79% 30.35 in 10.0 mi ENE 17.3 mph - N/A   Overcast
7:45 AM -5.8 °F -27.5 °F -9.4 °F 84% 30.33 in 10.0 mi NE 16.1 mph - N/A   Scattered Clouds
7:56 AM -4.9 °F -25.6 °F -9.9 °F 79% 30.34 in 10.0 mi ENE 15.0 mph - N/A   Clear
8:21 AM -4.0 °F -25.2 °F -9.4 °F 78% 30.32 in 10.0 mi ENE 16.1 mph - N/A   Mostly Cloudy
8:56 AM -1.8 °F -22.4 °F -6.9 °F 79% 30.35 in 10.0 mi ENE 16.1 mph - N/A   Overcast
9:04 AM -2.2 °F -22.9 °F -7.6 °F 78% 30.33 in 10.0 mi NE 16.1 mph - N/A   Overcast
9:56 AM -0.9 °F -21.2 °F -6.0 °F 79% 30.35 in 10.0 mi NE 16.1 mph - N/A   Overcast
10:20 AM -0.4 °F -21.7 °F -5.8 °F 78% 30.33 in 8.0 mi ENE 18.4 mph - N/A   Mostly Cloudy
10:56 AM -1.8 °F -24.2 °F -6.9 °F 79% 30.35 in 10.0 mi ENE 19.6 mph - N/A   Overcast
11:21 AM -2.2 °F -24.7 °F -7.6 °F 78% 30.33 in 5.0 mi ENE 19.6 mph - N/A   Haze
11:39 AM -0.4 °F -21.7 °F -5.8 °F 78% 30.33 in 5.0 mi NE 18.4 mph - N/A   Haze
11:56 AM 0.1 °F -22.6 °F -4.9 °F 79% 30.34 in 6.0 mi ENE 21.9 mph - N/A   Haze
12:56 PM 1.0 °F -21.4 °F -4.9 °F 76% 30.34 in 5.0 mi ENE 21.9 mph - N/A   Haze
1:45 PM 1.4 °F -21.4 °F -5.8 °F 72% 30.33 in 2.5 mi ENE 23.0 mph - N/A   Haze
1:56 PM 1.0 °F -22.4 °F -4.9 °F 76% 30.34 in 3.0 mi ENE 24.2 mph - N/A   Haze
2:56 PM 1.0 °F -23.2 °F -4.0 °F 79% 30.35 in 3.0 mi ENE 26.5 mph - N/A   Haze
3:56 PM 1.4 °F -21.9 °F -4.0 °F 78% 30.34 in 2.5 mi ENE 24.2 mph - N/A   Haze
4:17 PM 1.4 °F -21.0 °F -4.0 °F 78% 30.35 in 3.0 mi ENE 21.9 mph - N/A   Haze
4:56 PM 1.0 °F -21.9 °F -4.9 °F 76% 30.37 in 3.0 mi ENE 23.0 mph - N/A   Haze
5:17 PM 1.4 °F -22.3 °F -5.8 °F 72% 30.35 in 2.5 mi ENE 25.3 mph - N/A   Haze
5:56 PM 0.1 °F -22.6 °F -4.9 °F 79% 30.37 in 3.0 mi ENE 21.9 mph - N/A   Haze
6:56 PM 0.1 °F -23.1 °F -4.9 °F 79% 30.37 in 4.0 mi ENE 23.0 mph 28.8 mph N/A   Haze
7:24 PM -0.4 °F -24.7 °F -5.8 °F 78% 30.35 in 2.0 mi ENE 25.3 mph 28.8 mph N/A   Haze
7:49 PM -2.2 °F -26.7 °F -7.6 °F 78% 30.35 in 1.5 mi ENE 24.2 mph 31.1 mph N/A   Haze
7:56 PM -1.8 °F -26.2 °F -6.9 °F 79% 30.36 in 1.8 mi ENE 24.2 mph - N/A   Haze
8:20 PM -2.2 °F -26.7 °F -7.6 °F 78% 30.35 in 2.0 mi ENE 24.2 mph - N/A   Haze
8:33 PM -2.2 °F -27.6 °F -7.6 °F 78% 30.35 in 1.8 mi ENE 26.5 mph - N/A   Haze
8:56 PM -2.9 °F -27.6 °F -8.9 °F 76% 30.37 in 1.8 mi ENE 24.2 mph - N/A   Haze
9:16 PM -4.0 °F -29.1 °F -9.4 °F 78% 30.35 in 1.2 mi ENE 24.2 mph - N/A   Haze
9:24 PM -4.0 °F -30.0 °F -9.4 °F 78% 30.35 in 1.5 mi ENE 26.5 mph - N/A   Haze
9:56 PM -5.8 °F -32.0 °F -9.4 °F 84% 30.36 in 1.5 mi ENE 25.3 mph 34.5 mph N/A   Haze
10:06 PM -5.8 °F -32.4 °F -9.4 °F 84% 30.36 in 1.2 mi ENE 26.5 mph - N/A   Haze
10:21 PM -5.8 °F -32.0 °F -9.4 °F 84% 30.36 in 1.8 mi ENE 25.3 mph - N/A   Haze
10:56 PM -4.9 °F -31.2 °F -9.9 °F 79% 30.38 in 2.5 mi ENE 26.5 mph - N/A   Haze
11:22 PM -5.8 °F -32.4 °F -9.4 °F 84% 30.36 in 1.5 mi ENE 26.5 mph 34.5 mph N/A   Haze
11:42 PM -5.8 °F -32.9 °F -9.4 °F 84% 30.36 in 1.2 mi ENE 27.6 mph - N/A   Haze
11:56 PM -4.9 °F -31.2 °F -9.9 °F 79% 30.38 in 1.5 mi ENE 26.5 mph - N/A   Haze